Change the Weather History Date:

Saturday, July 5, 2014

  Actual Average Record
Temperature  
Mean Temperature 74 °F -  
Max Temperature 84 °F 82 °F 93 °F (1999)
Min Temperature 64 °F 65 °F 55 °F (1997)
Cooling Degree Days 9    
Growing Degree Days 24 (Base 50)    
Moisture  
Dew Point 70 °F    
Average Humidity 93    
Maximum Humidity 100    
Minimum Humidity 78    
Precipitation  
Precipitation 1.39 in - - ()
Sea Level Pressure  
Sea Level Pressure 29.99 in    
Wind  
Wind Speed 12 mph (SSE)    
Max Wind Speed 23 mph    
Max Gust Speed 31 mph    
Visibility 9 miles    
Events Rain    
Averages and records for this station are not official NWS values.
T = Trace of Precipitation, MM = Missing Value Source: NWS Daily Summary

Daily Weather History Graph

Daily Weather History Graph

Search for Another Location

Airport or City:

Trip Planner

Search our weather history database for the weather conditions in past years. The results will help you decide how hot, cold, wet, or windy it might be!

Date:

Astronomy

Jul. 05, 2014 Rise Set
Actual Time 5:56 AM CDT 8:59 PM CDT
Civil Twilight 5:22 AM CDT 9:32 PM CDT
Nautical Twilight 4:39 AM CDT 10:14 PM CDT
Astronomical Twilight 3:49 AM CDT 11:05 PM CDT
Moon 1:56 PM CDT (7/5) 12:47 AM CDT (7/5)
Length of Visible Light 16h 09m
Length of Day
15h 03m
First Quarter, 52% of the Moon is Illuminated
Jul 5
First Quarter
Jul 12
Full
Jul 18
Last Quarter
Jul 26
New
Aug 3
First Quarter

Hourly Weather History & Observations

Time (CDT) Temp. Heat Index Dew Point Humidity Pressure Visibility Wind Dir Wind Speed Gust Speed Precip Events Conditions
12:15 AM 69.8 °F - 64.4 °F 83% 30.13 in 10.0 mi SSE 13.8 mph - N/A   Unknown
12:35 AM 68.0 °F - 64.4 °F 88% 30.13 in 10.0 mi SSE 12.7 mph - N/A   Partly Cloudy
12:55 AM 69.8 °F - 62.6 °F 78% 30.12 in 10.0 mi SSE 15.0 mph - N/A   Mostly Cloudy
1:15 AM 69.8 °F - 62.6 °F 78% 30.12 in 10.0 mi SSE 13.8 mph - N/A   Overcast
1:35 AM 69.8 °F - 62.6 °F 78% 30.12 in 10.0 mi SSE 13.8 mph 19.6 mph N/A   Overcast
1:55 AM 69.8 °F - 62.6 °F 78% 30.10 in 10.0 mi SSE 13.8 mph - N/A   Overcast
2:15 AM 68.0 °F - 62.6 °F 83% 30.07 in 10.0 mi SSE 15.0 mph 21.9 mph N/A   Overcast
2:35 AM 68.0 °F - 62.6 °F 83% 30.03 in 10.0 mi SSE 17.3 mph - N/A   Mostly Cloudy
2:55 AM 68.0 °F - 62.6 °F 83% 30.05 in 10.0 mi South 8.1 mph 17.3 mph N/A   Mostly Cloudy
3:15 AM 68.0 °F - 64.4 °F 88% 30.03 in 8.0 mi SSE 10.4 mph - N/A Rain Light Rain
3:35 AM 66.2 °F - 64.4 °F 94% 30.05 in 9.0 mi SSE 10.4 mph - N/A Rain Light Rain
3:55 AM 66.2 °F - 64.4 °F 94% 30.04 in 7.0 mi South 13.8 mph 19.6 mph 0.04 in   Light Drizzle
4:15 AM 66.2 °F - 66.2 °F 100% 30.02 in 1.8 mi SE 10.4 mph 24.2 mph N/A Rain Rain
4:35 AM 68.0 °F - 68.0 °F 100% 30.01 in 6.0 mi SSE 15.0 mph 26.5 mph N/A Rain Light Rain
4:55 AM 66.2 °F - 66.2 °F 100% 30.03 in 9.0 mi ESE 17.3 mph 26.5 mph 0.33 in   Mostly Cloudy
5:15 AM 66.2 °F - 66.2 °F 100% 30.03 in 9.0 mi ESE 16.1 mph 25.3 mph N/A   Mostly Cloudy
5:35 AM 66.2 °F - 66.2 °F 100% 30.04 in 9.0 mi ESE 12.7 mph 19.6 mph N/A Rain Light Rain
5:55 AM 66.2 °F - 66.2 °F 100% 30.02 in 7.0 mi SE 19.6 mph - 0.01 in Rain Light Rain
6:15 AM 66.2 °F - 66.2 °F 100% 30.07 in 3.0 mi NNE 8.1 mph 31.1 mph N/A Rain Heavy Rain
6:35 AM 64.4 °F - 64.4 °F 100% 30.13 in 0.8 mi North 23.0 mph 28.8 mph N/A Rain Heavy Rain
6:55 AM 64.4 °F - 64.4 °F 100% 30.09 in 1.8 mi ENE 16.1 mph 23.0 mph 0.89 in Rain Heavy Rain
7:15 AM 64.4 °F - 64.4 °F 100% 30.06 in 9.0 mi East 11.5 mph - N/A   Mostly Cloudy
7:35 AM 64.4 °F - 64.4 °F 100% 30.03 in 10.0 mi SSE 9.2 mph - N/A   Partly Cloudy
7:55 AM 64.4 °F - 64.4 °F 100% 30.03 in 10.0 mi South 10.4 mph - 0.12 in   Clear
8:15 AM 64.4 °F - 64.4 °F 100% 30.03 in 10.0 mi South 11.5 mph - N/A   Clear
8:35 AM 64.4 °F - 64.4 °F 100% 30.04 in 10.0 mi SE 8.1 mph - N/A   Partly Cloudy
8:55 AM 64.4 °F - 64.4 °F 100% 30.05 in 10.0 mi SSE 11.5 mph - N/A   Clear
9:15 AM 66.2 °F - 66.2 °F 100% 30.04 in 10.0 mi SSW 10.4 mph - N/A   Clear
9:35 AM 66.2 °F - 66.2 °F 100% 30.02 in 10.0 mi South 8.1 mph - N/A   Clear
9:55 AM 68.0 °F - 68.0 °F 100% 30.02 in 10.0 mi NE 8.1 mph - N/A   Clear
10:15 AM 68.0 °F - 68.0 °F 100% 30.03 in 10.0 mi ENE 9.2 mph 15.0 mph N/A   Clear
10:35 AM 68.0 °F - 68.0 °F 100% 30.03 in 10.0 mi East 11.5 mph - N/A   Partly Cloudy
10:55 AM 68.0 °F - 68.0 °F 100% - 10.0 mi ESE 8.1 mph - N/A   Partly Cloudy
11:15 AM 69.8 °F - 69.8 °F 100% 30.02 in 10.0 mi SE 11.5 mph - N/A   Unknown
11:35 AM 69.8 °F - 69.8 °F 100% 30.01 in 10.0 mi SE 12.7 mph - N/A   Clear
11:55 AM 71.6 °F - 69.8 °F 94% 30.00 in 10.0 mi SSE 11.5 mph - N/A   Clear
12:15 PM 73.4 °F - 71.6 °F 94% 30.00 in 10.0 mi South 10.4 mph 16.1 mph N/A   Clear
12:35 PM 75.2 °F - 71.6 °F 89% 30.00 in 10.0 mi South 13.8 mph - N/A   Clear
12:55 PM 75.2 °F - 71.6 °F 89% 29.99 in 10.0 mi South 13.8 mph - N/A   Partly Cloudy
1:15 PM 75.2 °F - 71.6 °F 89% 29.98 in 10.0 mi South 12.7 mph - N/A   Partly Cloudy
1:35 PM 75.2 °F - 73.4 °F 94% 29.98 in 10.0 mi South 10.4 mph - N/A   Partly Cloudy
1:55 PM 75.2 °F - 73.4 °F 94% 29.98 in 10.0 mi South 8.1 mph 16.1 mph N/A   Mostly Cloudy
2:15 PM 77.0 °F - 73.4 °F 89% 29.98 in 10.0 mi South 9.2 mph - N/A   Mostly Cloudy
2:35 PM 77.0 °F - 75.2 °F 94% 29.97 in 10.0 mi South 9.2 mph - N/A   Scattered Clouds
2:55 PM 78.8 °F - 75.2 °F 89% 29.97 in 10.0 mi South 10.4 mph - N/A   Mostly Cloudy
3:15 PM 78.8 °F - 75.2 °F 89% 29.97 in 9.0 mi South 10.4 mph - N/A   Partly Cloudy
3:35 PM 80.6 °F 87.1 °F 77.0 °F 89% 29.96 in 9.0 mi South 9.2 mph - N/A   Clear
3:55 PM 78.8 °F - 77.0 °F 94% 29.95 in 10.0 mi South 10.4 mph - N/A   Scattered Clouds
4:15 PM 82.4 °F 90.9 °F 77.0 °F 84% 29.95 in 10.0 mi South 8.1 mph 16.1 mph N/A   Scattered Clouds
4:35 PM 82.4 °F 90.9 °F 77.0 °F 84% 29.94 in 9.0 mi South 15.0 mph - N/A   Scattered Clouds
4:55 PM 84.2 °F 94.1 °F 77.0 °F 79% 29.93 in 10.0 mi South 16.1 mph - N/A   Partly Cloudy
5:15 PM 82.4 °F 90.9 °F 77.0 °F 84% 29.94 in 10.0 mi South 13.8 mph - N/A   Partly Cloudy
5:35 PM 82.4 °F 89.5 °F 75.2 °F 79% 29.93 in 10.0 mi SSW 13.8 mph - N/A   Partly Cloudy
5:55 PM 82.4 °F 90.9 °F 77.0 °F 84% 29.93 in 10.0 mi South 12.7 mph - N/A   Partly Cloudy
6:15 PM 82.4 °F 90.9 °F 77.0 °F 84% 29.92 in 10.0 mi South 9.2 mph 16.1 mph N/A   Clear
6:35 PM 82.4 °F 90.9 °F 77.0 °F 84% 29.92 in 10.0 mi South 9.2 mph - N/A   Clear
6:55 PM 82.4 °F 90.9 °F 77.0 °F 84% 29.92 in 10.0 mi South 9.2 mph - N/A   Clear
7:15 PM 82.4 °F 90.9 °F 77.0 °F 84% 29.92 in 10.0 mi SSE 10.4 mph - N/A   Clear
7:35 PM 82.4 °F 90.9 °F 77.0 °F 84% 29.91 in 9.0 mi SSE 10.4 mph - N/A   Clear
7:55 PM 80.6 °F 87.1 °F 77.0 °F 89% 29.91 in 10.0 mi SSE 11.5 mph 18.4 mph N/A   Clear
8:15 PM 80.6 °F 87.1 °F 77.0 °F 89% 29.91 in 9.0 mi SSE 9.2 mph 15.0 mph N/A   Clear
8:35 PM 78.8 °F - 77.0 °F 94% 29.91 in 9.0 mi SSE 8.1 mph - N/A   Clear
8:55 PM 77.0 °F - 77.0 °F 100% 29.91 in 9.0 mi SSE 9.2 mph - N/A   Clear
9:15 PM 77.0 °F - 77.0 °F 100% 29.91 in 8.0 mi SSE 10.4 mph - N/A   Clear
9:35 PM 77.0 °F - 77.0 °F 100% 29.91 in 10.0 mi SE 8.1 mph - N/A   Clear
9:55 PM 75.2 °F - 75.2 °F 100% 29.91 in 9.0 mi SE 9.2 mph - N/A   Unknown
10:15 PM 75.2 °F - 75.2 °F 100% 29.91 in 8.0 mi SE 8.1 mph - N/A   Unknown
10:35 PM 75.2 °F - 75.2 °F 100% 29.91 in 9.0 mi SE 9.2 mph - N/A   Unknown
10:55 PM 75.2 °F - 75.2 °F 100% 29.91 in 8.0 mi SE 9.2 mph - N/A   Clear
11:15 PM 75.2 °F - 75.2 °F 100% 29.91 in 7.0 mi SE 9.2 mph - N/A   Clear
11:35 PM 75.2 °F - 75.2 °F 100% 29.91 in 7.0 mi SE 8.1 mph - N/A   Clear
11:55 PM 75.2 °F - 75.2 °F 100% 29.91 in 6.0 mi SE 6.9 mph - N/A   Clear